Vertical_Velocity
-1 -3 -3 -2 -0 -0 -0 -0 -0 -1 -2 0 2 -3 -3 -2 -6 -2 -3 -0 -3 1 -1 2 0 0 3 0 3 7 2 -2 -9 -7 -5 6 -5 -3 4 -7 2 -1 -1 -5 1
0 -2 -2 -3 1 -1 -1 -1 -0 -0 2 -2 0 2 -2 -1 -1 -5 4 1 -3 -0 -2 2 3 2 0 -3 -2 -3 -0 -11 -0 -3 0 7 14 -4 -2 -4 -2 2 3 6 5
0 -1 -1 -0 0 -1 -2 -1 -1 -1 0 1 1 1 1 -0 -4 -4 -11 -2 1 -1 -1 1 1 5 -4 0 0 3 -13 -4 -10 -10 6 8 -8 5 -6 -1 2 -2 3 11 8
-0 1 -2 0 1 0 -1 0 -2 0 -3 1 1 1 2 -1 -4 -2 -3 2 2 -0 -0 0 -0 4 2 -3 -4 7 -2 -2 -10 12 24 -2 -9 -7 -4 -6 -2 -1 -4 -2 -4
0 1 2 -0 -1 -1 1 -1 -2 -1 -3 1 -2 1 2 -1 -16 4 -3 -3 -1 1 -0 -0 3 4 5 -1 -3 -1 6 2 4 -13 4 19 -9 -13 -8 4 -1 -3 -7 -1 -7
-1 -1 4 -0 0 -2 -2 0 -1 -4 -1 -0 1 2 4 -8 3 2 -2 0 0 -1 1 2 -3 1 -2 11 4 2 -2 -6 3 1 -12 -3 -11 10 -8 7 -10 0 -1 5 4
-0 0 1 1 2 -1 -1 -1 -3 -4 -1 0 -0 1 -2 -3 -2 -1 -3 -3 -0 0 -0 -0 0 6 9 -5 10 8 4 1 -12 5 -5 7 -12 -5 6 -4 -10 4 -1 -8 2
-0 1 1 0 1 -0 -0 -3 -1 -4 -4 1 0 2 -16 8 1 -2 4 -3 -1 1 -2 1 -2 -0 -6 6 -4 1 0 1 6 2 -11 23 -31 -2 -0 8 -1 0 0 -4 -4
0 -1 1 2 0 1 2 -3 -2 -7 -4 1 1 0 -13 1 -4 9 -4 -1 1 0 2 3 4 -1 1 -4 -5 4 -9 -7 -7 -0 -1 8 -25 -0 -9 -5 12 2 -2 -3 0
1 -2 -0 2 1 0 1 -2 -2 -3 -4 0 -0 2 -0 -3 -2 1 1 0 2 0 4 2 1 -4 -6 2 -28 -11 7 4 -5 -16 -2 0 -14 -5 -4 5 -2 -2 -4 8 -8
4 -1 -1 1 0 0 3 -4 0 -4 -3 1 0 -0 -3 2 -2 -2 1 1 2 1 -3 -0 -3 -29 -5 -9 5 6 2 -1 -11 2 -3 -8 -11 -6 -11 4 -3 7 2 10 -7
3 -2 1 -0 0 -1 -1 -2 6 -2 -5 -6 3 -12 15 -6 -4 1 2 -2 -3 -5 4 9 -32 -1 23 8 13 5 6 -9 6 -3 19 1 -10 6 -0 -17 -0 2 4 7 -14
-1 1 2 -0 -2 2 -3 4 -1 2 10 -8 -6 4 -1 9 -4 -1 2 2 -1 5 1 -5 -25 15 1 1 2 -5 -7 2 -15 16 9 17 -0 -5 -10 4 6 -2 -1 7 -8
-4 0 1 1 -3 1 1 2 1 -3 10 -12 -10 -16 -1 0 -6 10 7 3 3 -4 -0 -2 8 -4 5 -4 13 3 -0 5 7 24 -8 10 -5 -9 -3 -3 -9 -0 -1 0 -8
-2 2 -0 6 -3 -1 -1 2 3 6 6 -4 1 -1 -4 -7 5 -7 6 15 1 -8 9 -26 -0 -5 -3 -38 12 -31 3 -9 11 -1 9 -4 11 -46 12 -1 -4 -6 11 -1 -6
-1 2 1 2 -3 0 1 -1 -8 5 -8 0 -2 -2 -1 -3 -3 1 -7 15 6 11 12 -2 11 7 -13 3 -5 21 -3 13 18 29 5 -9 -4 -10 2 -15 -2 10 9 -2 -4
3 0 -0 3 2 -1 0 1 6 4 -3 -0 -3 -4 2 2 -1 6 13 -5 -4 2 -7 9 -9 6 12 3 11 8 20 8 10 4 -4 -13 13 -18 -3 14 -2 -2 -3 -4 -1
2 7 1 5 -1 2 1 -0 11 3 0 -3 -4 -1 -2 -1 -2 1 17 6 -6 3 -2 6 -3 -5 -11 -15 -3 -5 16 1 -2 -2 -2 20 -3 8 9 -1 -1 5 0 0 1
1 5 3 2 1 13 2 1 -11 -0 -2 -5 2 4 -1 -2 5 4 -4 -6 -5 6 2 -2 -7 -6 8 1 28 7 5 -26 23 -2 -3 -5 5 8 2 3 -0 -1 -2 -1 1
-0 4 -4 3 10 15 9 -3 -3 -1 -0 5 -2 -0 -1 -4 0 2 -4 -8 -4 -5 -5 -2 2 -9 2 1 7 25 -1 17 -3 1 2 4 1 -1 -5 -1 1 -6 -4 -2 -1
1 10 -5 8 22 11 -3 -2 -0 5 2 6 -3 5 4 -6 2 1 1 -4 10 6 -2 6 -1 2 18 -6 -14 7 -5 -12 7 8 -4 -1 5 9 -2 -6 -1 -5 -0 0 -1
7 9 -6 7 3 -3 -4 -6 6 0 -1 0 2 3 3 17 -5 -5 -14 11 0 5 -9 2 5 0 1 -8 -2 -9 12 12 7 1 -3 2 7 8 4 -1 -1 1 -1 1 2
10 7 0 8 2 -5 1 -2 4 8 -0 3 -3 -5 4 23 2 -10 0 6 2 -12 -14 -22 -2 6 7 -3 33 -8 -4 -6 2 7 -1 -1 5 5 1 -1 -0 1 -0 2 2
11 8 6 7 -4 -1 4 -2 3 -1 2 2 -8 3 8 15 -2 6 -7 10 11 11 5 19 3 -6 -4 -12 -15 -2 -6 -3 4 1 1 7 -4 2 3 1 -2 0 1 -0 -0
7 -4 -8 -6 -9 -2 0 3 1 -1 0 1 -2 -9 -5 10 -2 8 3 4 -2 4 0 0 -3 -2 -11 21 5 -9 -17 -11 -5 -8 -0 -8 10 -4 -4 -0 -1 -0 -3 -1 -1
7 2 2 -4 -0 -2 10 -11 0 1 5 -2 -4 2 -6 5 -10 -7 -4 -2 -6 -12 1 3 -9 7 6 5 -0 -2 1 3 6 -0 -1 -1 1 29 4 6 -9 1 -0 -1 -2
3 -3 4 -1 1 1 -4 1 -3 14 -9 -9 6 4 0 -4 7 22 11 3 -9 -9 -12 3 -3 9 3 3 -4 4 -7 -6 1 -1 1 -7 -13 14 6 2 -1 -8 0 -1 2
Height
3080 3080 3079 3077 3075 3075 3076 3076 3076 3077 3078 3078 3079 3080 3080 3081 3080 3081 3084 3087 3088 3089 3092 3097 3100 3103 3106 3109 3115 3120 3120 3118 3122 3125 3126 3128 3126 3128 3127 3127 3129 3132 3132 3131 3133
3075 3075 3075 3074 3072 3072 3072 3072 3072 3071 3071 3073 3074 3076 3075 3076 3076 3074 3084 3082 3083 3085 3089 3092 3095 3099 3100 3103 3108 3111 3111 3110 3118 3122 3123 3125 3125 3124 3124 3124 3125 3128 3131 3131 3130
3072 3071 3070 3070 3069 3069 3068 3068 3067 3067 3066 3067 3068 3070 3071 3072 3070 3069 3074 3080 3079 3080 3083 3085 3089 3093 3093 3098 3102 3105 3101 3109 3114 3117 3120 3120 3119 3119 3120 3121 3122 3124 3126 3126 3125
3068 3069 3068 3067 3065 3065 3064 3063 3063 3061 3060 3061 3062 3064 3065 3066 3071 3064 3067 3071 3072 3074 3078 3082 3085 3087 3090 3092 3099 3101 3101 3105 3108 3112 3116 3114 3115 3113 3116 3116 3117 3118 3119 3120 3120
3065 3064 3065 3064 3062 3061 3060 3059 3058 3056 3055 3055 3055 3057 3059 3058 3061 3061 3063 3067 3068 3069 3073 3078 3080 3083 3084 3089 3093 3092 3097 3101 3104 3106 3106 3109 3107 3108 3109 3111 3113 3114 3116 3117 3118
3060 3060 3060 3059 3058 3057 3056 3055 3053 3051 3050 3050 3051 3052 3053 3053 3059 3055 3058 3063 3065 3066 3068 3072 3076 3080 3081 3085 3087 3090 3092 3094 3098 3101 3102 3103 3103 3104 3104 3106 3109 3110 3111 3113 3114
3055 3055 3054 3054 3054 3053 3052 3052 3050 3047 3045 3045 3046 3046 3044 3052 3052 3052 3051 3058 3061 3062 3065 3069 3073 3076 3080 3081 3082 3084 3087 3091 3089 3093 3096 3099 3096 3096 3099 3102 3104 3106 3106 3107 3107
3051 3049 3049 3049 3049 3048 3048 3048 3047 3044 3041 3041 3041 3040 3035 3047 3045 3048 3048 3053 3056 3057 3059 3064 3068 3070 3074 3073 3078 3079 3082 3077 3077 3086 3089 3094 3086 3091 3096 3098 3099 3101 3102 3102 3101
3046 3044 3043 3043 3043 3044 3043 3043 3043 3041 3039 3038 3038 3037 3034 3040 3040 3044 3044 3047 3050 3053 3055 3059 3062 3065 3069 3071 3074 3072 3067 3067 3073 3079 3084 3086 3085 3086 3091 3094 3096 3097 3098 3096 3096
3040 3039 3037 3037 3037 3037 3038 3038 3038 3037 3035 3035 3035 3036 3033 3036 3036 3037 3039 3041 3044 3048 3051 3054 3057 3060 3061 3062 3055 3059 3063 3065 3065 3073 3078 3079 3080 3082 3087 3088 3090 3092 3094 3093 3091
3034 3034 3033 3032 3032 3031 3033 3034 3036 3033 3029 3031 3031 3030 3027 3031 3031 3032 3034 3036 3039 3042 3045 3049 3052 3042 3043 3049 3052 3059 3063 3065 3064 3071 3074 3074 3075 3076 3082 3083 3084 3088 3090 3090 3087
3027 3029 3028 3027 3026 3025 3027 3028 3030 3028 3021 3021 3023 3021 3024 3023 3024 3027 3030 3031 3032 3033 3039 3045 3035 3034 3046 3050 3054 3056 3058 3060 3062 3066 3069 3069 3069 3072 3074 3075 3078 3082 3085 3086 3081
3020 3023 3022 3021 3022 3022 3022 3024 3024 3023 3016 3007 3013 3012 3017 3017 3016 3021 3024 3026 3026 3028 3030 3031 3025 3040 3043 3045 3051 3052 3054 3054 3059 3061 3063 3066 3063 3064 3066 3068 3072 3075 3079 3080 3077
3014 3016 3015 3017 3020 3018 3019 3019 3020 3021 3012 3003 3001 3000 3005 3006 3006 3014 3016 3021 3020 3020 3028 3029 3028 3033 3036 3038 3046 3045 3049 3051 3056 3057 3056 3060 3056 3055 3055 3058 3063 3068 3073 3072 3072
3007 3010 3010 3012 3013 3013 3016 3016 3016 3018 3012 2999 2996 2996 2997 3001 3003 3004 3007 3009 3012 3016 3023 3016 3020 3024 3028 3028 3038 3035 3046 3047 3049 3050 3050 3050 3056 3046 3049 3049 3054 3059 3066 3066 3067
3001 3004 3005 3007 3009 3010 3010 3011 3014 3018 3006 2996 2992 2993 2995 2996 2997 2998 2999 3005 3008 3011 3014 3014 3018 3018 3019 3023 3027 3037 3043 3043 3041 3034 3041 3044 3046 3042 3041 3043 3048 3054 3058 3059 3061
2995 2999 3001 3002 3004 3004 3006 3009 3013 3006 2997 2993 2991 2991 2992 2992 2992 2995 2996 2999 3004 3008 3007 3009 3007 3010 3011 3013 3021 3029 3033 3026 3028 3029 3031 3034 3041 3039 3037 3040 3043 3047 3051 3053 3055
2989 2994 2996 2997 2998 2999 3001 3006 3002 2993 2991 2988 2989 2989 2989 2989 2989 2991 2993 2997 3002 3003 3004 3004 3002 3000 2999 3003 3012 3011 3018 3015 3014 3023 3024 3028 3032 3034 3037 3040 3043 3046 3048 3049 3051
2983 2987 2989 2991 2993 2993 2996 2996 2989 2987 2986 2986 2986 2986 2985 2985 2989 2990 2993 2994 2994 2996 3001 2999 2993 2991 2992 3001 3005 3004 3008 3012 3012 3010 3018 3022 3027 3029 3032 3036 3038 3041 3043 3045 3048
2977 2981 2984 2986 2987 2987 2988 2983 2981 2981 2982 2983 2983 2982 2981 2982 2987 2989 2991 2986 2990 2993 2995 2996 2995 2988 2988 2995 3001 3002 3011 3007 3008 3007 3013 3016 3021 3021 3027 3032 3034 3035 3039 3042 3045
2973 2975 2978 2981 2982 2981 2976 2975 2974 2975 2978 2981 2979 2978 2979 2981 2982 2986 2986 2984 2984 2986 2989 2994 2999 2989 2985 2989 2992 2994 2999 3003 3002 2999 3003 3014 3020 3019 3023 3028 3031 3033 3036 3040 3043
2966 2969 2973 2975 2976 2972 2970 2970 2970 2970 2973 2975 2974 2973 2974 2979 2980 2984 2982 2982 2981 2984 2984 2988 2990 2987 2983 2985 2991 2994 2995 2997 2997 3002 3004 3006 3020 3020 3024 3026 3029 3031 3033 3037 3040
2961 2965 2966 2968 2967 2967 2967 2965 2965 2967 2969 2970 2970 2970 2972 2977 2980 2979 2979 2979 2982 2983 2983 2984 2983 2981 2985 2987 2990 2992 2997 2998 3000 3002 3006 3007 3018 3020 3023 3026 3028 3030 3032 3034 3037
2956 2959 2961 2960 2962 2964 2964 2962 2961 2961 2963 2965 2965 2969 2970 2975 2978 2978 2977 2977 2981 2982 2982 2984 2981 2980 2982 2982 2985 2992 2996 3000 3003 3005 3007 3010 3014 3019 3023 3025 3027 3030 3032 3033 3035
2948 2952 2954 2954 2958 2960 2960 2959 2958 2958 2958 2958 2961 2963 2967 2973 2976 2975 2978 2980 2978 2981 2981 2982 2980 2977 2976 2981 2982 2987 2994 2999 3002 3005 3009 3012 3016 3019 3022 3024 3026 3029 3031 3033 3034
2942 2947 2949 2952 2955 2956 2956 2952 2954 2958 2958 2958 2959 2962 2965 2970 2975 2973 2976 2977 2978 2979 2980 2981 2981 2979 2983 2984 2986 2989 2993 2997 2999 3005 3008 3010 3014 3020 3020 3021 3024 3027 3029 3031 3032
2938 2943 2946 2948 2952 2952 2950 2949 2950 2950 2951 2954 2960 2962 2963 2966 2969 2973 2975 2977 2974 2979 2982 2984 2985 2983 2984 2986 2989 2993 2992 2994 2997 3000 3004 3007 3012 3016 3018 3020 3021 3024 3026 3027 3029